,,Stat5,,Stat1,,Stat2,,Stat3,,Stat4,,Wind1,,Wind1,
time,status,PA1M_AVG,status,PR1M_SUM,status,RH1M_AVG,status,SR1M_AVG,status,TA1M_AVG,status,W1dAve1m,status,W1sAve1m,
2001-01-17, 00:00:00,VALID,918.592,VALID,0,VALID,88.0179,VALID,-0.0509425,VALID,19.9502,VALID,192,VALID,1.09397,
2001-01-17, 00:01:00,VALID,918.581,VALID,0,VALID,88.3129,VALID,-0.0509425,VALID,19.9169,VALID,197,VALID,1.00021,
2001-01-17, 00:02:00,VALID,918.577,VALID,0,VALID,88.3841,VALID,-0.0509425,VALID,19.9018,VALID,204,VALID,0.989286,
2001-01-17, 00:03:00,VALID,918.552,VALID,0,VALID,88.3778,VALID,-0.0849042,VALID,19.8985,VALID,213,VALID,1.00452,
2001-01-17, 00:04:00,VALID,918.538,VALID,0,VALID,88.4948,VALID,-0.0339617,VALID,19.8789,VALID,190,VALID,1.34071,
2001-01-17, 00:05:00,VALID,918.533,VALID,0,VALID,88.3231,VALID,-0.0849042,VALID,19.8695,VALID,181,VALID,0.819079,
2001-01-17, 00:06:00,VALID,918.528,VALID,0,VALID,88.1286,VALID,-0.0679233,VALID,19.863,VALID,187,VALID,0.971828,
2001-01-17, 00:07:00,VALID,918.507,VALID,0,VALID,88.1947,VALID,-0.0849042,VALID,19.8729,VALID,198,VALID,0.785156,
2001-01-17, 00:08:00,VALID,918.523,VALID,0,VALID,88.084,VALID,-0.0849042,VALID,19.8923,VALID,174,VALID,0.72526,
2001-01-17, 00:09:00,VALID,918.509,VALID,0,VALID,88.4337,VALID,-0.0339617,VALID,19.8985,VALID,128,VALID,0.582137,
2001-01-17, 00:10:00,VALID,918.501,VALID,0,VALID,88.5151,VALID,-0.0849042,VALID,19.8983,VALID,144,VALID,0.544613,
2001-01-17, 00:11:00,VALID,918.507,VALID,0,VALID,88.6715,VALID,-0.0679233,VALID,19.8821,VALID,163,VALID,0.293837,
2001-01-17, 00:12:00,VALID,918.508,VALID,0,VALID,88.5075,VALID,-0.0509425,VALID,19.8762,VALID,164,VALID,0.451858,
2001-01-17, 00:13:00,VALID,918.499,VALID,0,VALID,88.7516,VALID,-0.101885,VALID,19.867,VALID,162,VALID,0.222222,
2001-01-17, 00:14:00,VALID,918.485,VALID,0,VALID,88.6537,VALID,-0.101885,VALID,19.8471,VALID,150,VALID,0.443474,
2001-01-17, 00:15:00,VALID,918.465,VALID,0,VALID,88.3587,VALID,-0.0679233,VALID,19.8337,VALID,171,VALID,0.443668,
2001-01-17, 00:16:00,VALID,918.439,VALID,0,VALID,88.4083,VALID,-0.0679233,VALID,19.8406,VALID,184,VALID,0.351339,
2001-01-17, 00:17:00,VALID,918.429,VALID,0,VALID,88.4172,VALID,-0.0509425,VALID,19.8538,VALID,196,VALID,0.0868056,
2001-01-17, 00:18:00,VALID,918.404,VALID,0,VALID,88.5647,VALID,-0.0509425,VALID,19.8603,VALID,150,VALID,0.155382,
2001-01-17, 00:19:00,VALID,918.391,VALID,0,VALID,88.7097,VALID,-0.0339617,VALID,19.8687,VALID,169,VALID,0.164931,
2001-01-17, 00:20:00,VALID,918.387,VALID,0,VALID,88.8979,VALID,-0.0339617,VALID,19.8762,VALID,208,VALID,0.285362,
2001-01-17, 00:21:00,VALID,918.377,VALID,0,VALID,89.2908,VALID,-0.0509425,VALID,19.8692,VALID,199,VALID,0.0279948,
2001-01-17, 00:22:00,VALID,918.364,VALID,0,VALID,89.2514,VALID,-0.0679233,VALID,19.8533,VALID,199,VALID,0,
2001-01-17, 00:23:00,VALID,918.358,VALID,0,VALID,88.7046,VALID,-0.0339617,VALID,19.8401,VALID,188,VALID,0.354852,
2001-01-17, 00:24:00,VALID,918.346,VALID,0,VALID,88.4032,VALID,0,VALID,19.8361,VALID,189,VALID,0.245536,
2001-01-17, 00:25:00,VALID,918.333,VALID,0,VALID,88.5456,VALID,-0.0849042,VALID,19.8506,VALID,190,VALID,0.266892,
2001-01-17, 00:26:00,VALID,918.319,VALID,0,VALID,88.7364,VALID,-0.0509425,VALID,19.8404,VALID,242,VALID,0.22909,
2001-01-17, 00:27:00,VALID,918.313,VALID,0,VALID,88.6016,VALID,-0.0679233,VALID,19.8436,VALID,231,VALID,0.47614,
2001-01-17, 00:28:00,VALID,918.291,VALID,0,VALID,88.6982,VALID,-0.0849042,VALID,19.8376,VALID,229,VALID,0.343349,
2001-01-17, 00:29:00,VALID,918.296,VALID,0,VALID,88.6842,VALID,-0.0849042,VALID,19.8245,VALID,216,VALID,0.416295,
2001-01-17, 00:30:00,VALID,918.269,VALID,0,VALID,88.7059,VALID,-0.0679233,VALID,19.8118,VALID,203,VALID,0.47389,
2001-01-17, 00:31:00,VALID,918.253,VALID,0,VALID,88.613,VALID,-0.0679233,VALID,19.8083,VALID,186,VALID,0.733929,
2001-01-17, 00:32:00,VALID,918.231,VALID,0,VALID,88.6919,VALID,-0.0679233,VALID,19.7887,VALID,188,VALID,0.91276,
2001-01-17, 00:33:00,VALID,918.214,VALID,0,VALID,88.9093,VALID,-0.0509425,VALID,19.7855,VALID,190,VALID,0.941406,
2001-01-17, 00:34:00,VALID,918.203,VALID,0,VALID,89.0505,VALID,-0.0679233,VALID,19.7633,VALID,192,VALID,1.01085,
2001-01-17, 00:35:00,VALID,918.19,VALID,0,VALID,88.6957,VALID,-0.0849042,VALID,19.7541,VALID,184,VALID,0.852796,
2001-01-17, 00:36:00,VALID,918.19,VALID,0,VALID,88.7033,VALID,0.0169808,VALID,19.743,VALID,174,VALID,0.702474,
2001-01-17, 00:37:00,VALID,918.172,VALID,0,VALID,88.5138,VALID,0.0339617,VALID,19.7551,VALID,183,VALID,0.751085,
2001-01-17, 00:38:00,VALID,918.158,VALID,0,VALID,88.3676,VALID,0.0339617,VALID,19.7648,VALID,194,VALID,0.617804,
2001-01-17, 00:39:00,VALID,918.145,VALID,0,VALID,88.5596,VALID,0.0679233,VALID,19.7874,VALID,212,VALID,0.563616,
2001-01-17, 00:40:00,VALID,918.124,VALID,0,VALID,88.7923,VALID,0.0509425,VALID,19.7872,VALID,231,VALID,0.424831,
2001-01-17, 00:41:00,VALID,918.104,VALID,0,VALID,88.8699,VALID,0.0339617,VALID,19.8071,VALID,226,VALID,0.351792,
2001-01-17, 00:42:00,VALID,918.107,VALID,0,VALID,89.0263,VALID,0.0169808,VALID,19.8001,VALID,193,VALID,0.405828,
2001-01-17, 00:43:00,VALID,918.09,VALID,0,VALID,88.8928,VALID,0.0509425,VALID,19.7775,VALID,199,VALID,0.451723,
2001-01-17, 00:44:00,VALID,918.077,VALID,0,VALID,89.0301,VALID,0.0169808,VALID,19.7683,VALID,239,VALID,0.490543,
2001-01-17, 00:45:00,VALID,918.058,VALID,0,VALID,89.0988,VALID,0.0169808,VALID,19.7621,VALID,251,VALID,0.471834,
2001-01-17, 00:46:00,VALID,918.047,VALID,0,VALID,89.7384,VALID,0.0339617,VALID,19.7556,VALID,248,VALID,0.358036,
2001-01-17, 00:47:00,VALID,918.035,VALID,0,VALID,89.9419,VALID,0.0509425,VALID,19.7425,VALID,240,VALID,0.44553,
2001-01-17, 00:48:00,VALID,918.029,VALID,0,VALID,89.8109,VALID,0.0169808,VALID,19.7263,VALID,236,VALID,0.192491,
2001-01-17, 00:49:00,VALID,918.023,VALID,0,VALID,90.1453,VALID,0.0339617,VALID,19.7134,VALID,226,VALID,0.507595,
2001-01-17, 00:50:00,VALID,918.012,VALID,0,VALID,89.9597,VALID,0.0169808,VALID,19.6873,VALID,230,VALID,0.48787,
2001-01-17, 00:51:00,VALID,918.002,VALID,0,VALID,89.727,VALID,-0.0509425,VALID,19.6493,VALID,226,VALID,0.764974,
2001-01-17, 00:52:00,VALID,918.001,VALID,0,VALID,89.9775,VALID,-0.0169808,VALID,19.6468,VALID,206,VALID,0.779731,
2001-01-17, 00:53:00,VALID,917.963,VALID,0,VALID,90.4136,VALID,0,VALID,19.6376,VALID,204,VALID,0.584087,
2001-01-17, 00:54:00,VALID,917.96,VALID,0,VALID,90.5433,VALID,-0.0679233,VALID,19.6083,VALID,225,VALID,1.12857,
2001-01-17, 00:55:00,VALID,917.944,VALID,0,VALID,90.3704,VALID,-0.101885,VALID,19.5757,VALID,229,VALID,1.54962,
2001-01-17, 00:56:00,VALID,917.929,VALID,0,VALID,90.5586,VALID,-0.101885,VALID,19.5496,VALID,235,VALID,1.34099,
2001-01-17, 00:57:00,VALID,917.925,VALID,0,VALID,90.1593,VALID,-0.0849042,VALID,19.5474,VALID,227,VALID,1.63281,
2001-01-17, 00:58:00,VALID,917.919,VALID,0,VALID,89.8783,VALID,-0.0849042,VALID,19.5568,VALID,229,VALID,1.65845,
2001-01-17, 00:59:00,VALID,917.908,VALID,0,VALID,90.1949,VALID,-0.0679233,VALID,19.5668,VALID,236,VALID,1.2683,
2001-01-17, 01:00:00,VALID,917.905,VALID,0,VALID,90.3755,VALID,-0.101885,VALID,19.5762,VALID,226,VALID,1.40522,
2001-01-17, 01:01:00,VALID,917.915,VALID,0,VALID,89.9457,VALID,-0.0509425,VALID,19.566,VALID,222,VALID,1.44018,
2001-01-17, 01:02:00,VALID,917.902,VALID,0,VALID,90.1873,VALID,-0.0849042,VALID,19.5596,VALID,229,VALID,1.38086,
2001-01-17, 01:03:00,VALID,917.908,VALID,0,VALID,90.0779,VALID,-0.0509425,VALID,19.566,VALID,226,VALID,1.71788,
2001-01-17, 01:04:00,VALID,917.91,VALID,0,VALID,90.0487,VALID,-0.0679233,VALID,19.5693,VALID,224,VALID,1.59484,
2001-01-17, 01:05:00,VALID,917.902,VALID,0,VALID,89.7829,VALID,-0.0679233,VALID,19.5727,VALID,226,VALID,1.53166,
2001-01-17, 01:06:00,VALID,917.888,VALID,0,VALID,89.8643,VALID,-0.0169808,VALID,19.5713,VALID,222,VALID,1.59983,
2001-01-17, 01:07:00,VALID,917.88,VALID,0,VALID,89.863,VALID,0.0169808,VALID,19.5643,VALID,219,VALID,0.961155,
2001-01-17, 01:08:00,VALID,917.874,VALID,0,VALID,89.6507,VALID,0.0339617,VALID,19.571,VALID,220,VALID,1.31065,
2001-01-17, 01:09:00,VALID,917.862,VALID,0,VALID,89.5489,VALID,0.0339617,VALID,19.5842,VALID,225,VALID,1.49866,
2001-01-17, 01:10:00,VALID,917.855,VALID,0,VALID,89.6252,VALID,0.0169808,VALID,19.5906,VALID,221,VALID,1.03273,
2001-01-17, 01:11:00,VALID,917.851,VALID,0,VALID,89.4536,VALID,0.0169808,VALID,19.5973,VALID,220,VALID,1.63764,
2001-01-17, 01:12:00,VALID,917.822,VALID,0,VALID,89.5464,VALID,0.0169808,VALID,19.6038,VALID,222,VALID,1.57876,
2001-01-17, 01:13:00,VALID,917.822,VALID,0,VALID,89.4599,VALID,0.0169808,VALID,19.6036,VALID,221,VALID,1.38361,
2001-01-17, 01:14:00,VALID,917.81,VALID,0,VALID,89.3887,VALID,0,VALID,19.6006,VALID,232,VALID,1.22254,
2001-01-17, 01:15:00,VALID,917.801,VALID,0,VALID,89.2972,VALID,0.0339617,VALID,19.6105,VALID,222,VALID,1.32155,
2001-01-17, 01:16:00,VALID,917.798,VALID,0,VALID,89.3213,VALID,0.0169808,VALID,19.6038,VALID,226,VALID,1.39911,
2001-01-17, 01:17:00,VALID,917.776,VALID,0,VALID,89.2209,VALID,0.0169808,VALID,19.6001,VALID,225,VALID,1.21723,
2001-01-17, 01:18:00,VALID,917.753,VALID,0,VALID,89.0047,VALID,0.0169808,VALID,19.6098,VALID,215,VALID,1.3648,
2001-01-17, 01:19:00,VALID,917.743,VALID,0,VALID,88.0141,VALID,0.0169808,VALID,19.6264,VALID,199,VALID,1.18511,
2001-01-17, 01:20:00,VALID,917.707,VALID,0,VALID,87.7089,VALID,0.0339617,VALID,19.6711,VALID,209,VALID,0.869038,
2001-01-17, 01:21:00,VALID,917.702,VALID,0,VALID,88.2252,VALID,0,VALID,19.7392,VALID,214,VALID,0.701389,
2001-01-17, 01:22:00,VALID,917.681,VALID,0,VALID,88.6092,VALID,0.0509425,VALID,19.7519,VALID,200,VALID,0.868056,
2001-01-17, 01:23:00,VALID,917.664,VALID,0,VALID,88.8864,VALID,0.0339617,VALID,19.7459,VALID,212,VALID,0.697163,
2001-01-17, 01:24:00,VALID,917.666,VALID,0,VALID,88.9398,VALID,0.0339617,VALID,19.7263,VALID,213,VALID,1.03906,
2001-01-17, 01:25:00,VALID,917.653,VALID,0,VALID,89.217,VALID,0.0339617,VALID,19.6972,VALID,195,VALID,0.842061,
2001-01-17, 01:26:00,VALID,917.657,VALID,0,VALID,89.4383,VALID,0,VALID,19.6552,VALID,194,VALID,1.24357,
2001-01-17, 01:27:00,VALID,917.648,VALID,0,VALID,89.6545,VALID,0.0169808,VALID,19.606,VALID,230,VALID,0.551731,
2001-01-17, 01:28:00,VALID,917.649,VALID,0,VALID,90.0385,VALID,0,VALID,19.6001,VALID,216,VALID,0.698718,
2001-01-17, 01:29:00,VALID,917.646,VALID,0,VALID,89.7041,VALID,0.0169808,VALID,19.5842,VALID,189,VALID,0.993973,
2001-01-17, 01:30:00,VALID,917.645,VALID,0,VALID,89.5629,VALID,0.0339617,VALID,19.5516,VALID,193,VALID,0.993421,
2001-01-17, 01:31:00,VALID,917.635,VALID,0,VALID,89.9113,VALID,0,VALID,19.5586,VALID,202,VALID,0.672768,
2001-01-17, 01:32:00,VALID,917.612,VALID,0,VALID,89.4269,VALID,0.0339617,VALID,19.5454,VALID,222,VALID,1.00065,
2001-01-17, 01:33:00,VALID,917.609,VALID,0,VALID,89.1751,VALID,0.0169808,VALID,19.5481,VALID,200,VALID,1.03016,
2001-01-17, 01:34:00,VALID,917.594,VALID,0,VALID,89.315,VALID,0.0169808,VALID,19.5747,VALID,204,VALID,0.611328,
2001-01-17, 01:35:00,VALID,917.564,VALID,0,VALID,88.861,VALID,0,VALID,19.578,VALID,228,VALID,1.25535,
2001-01-17, 01:36:00,VALID,917.554,VALID,0,VALID,88.4986,VALID,-0.0679233,VALID,19.5884,VALID,216,VALID,1.07639,
2001-01-17, 01:37:00,VALID,917.539,VALID,0,VALID,88.2112,VALID,-0.101885,VALID,19.6045,VALID,220,VALID,1.02648,
2001-01-17, 01:38:00,VALID,917.523,VALID,0,VALID,87.9289,VALID,-0.0849042,VALID,19.6309,VALID,233,VALID,1.24712,
2001-01-17, 01:39:00,VALID,917.515,VALID,0,VALID,87.8412,VALID,-0.0849042,VALID,19.66,VALID,231,VALID,0.993973,
2001-01-17, 01:40:00,VALID,917.507,VALID,0,VALID,87.9594,VALID,-0.101885,VALID,19.6761,VALID,218,VALID,0.823902,
2001-01-17, 01:41:00,VALID,917.505,VALID,0,VALID,88.2583,VALID,-0.0849042,VALID,19.6925,VALID,204,VALID,0.678079,
2001-01-17, 01:42:00,VALID,917.508,VALID,0,VALID,88.4668,VALID,-0.101885,VALID,19.6761,VALID,218,VALID,0.71685,
2001-01-17, 01:43:00,VALID,917.491,VALID,0,VALID,88.407,VALID,-0.0679233,VALID,19.6565,VALID,214,VALID,0.797476,
2001-01-17, 01:44:00,VALID,917.481,VALID,0,VALID,88.3765,VALID,-0.0339617,VALID,19.6438,VALID,211,VALID,0.451562,
2001-01-17, 01:45:00,VALID,917.471,VALID,0,VALID,87.9454,VALID,-0.101885,VALID,19.6344,VALID,215,VALID,0.766036,
2001-01-17, 01:46:00,VALID,917.465,VALID,0,VALID,87.5945,VALID,-0.101885,VALID,19.6438,VALID,230,VALID,1.18616,
2001-01-17, 01:47:00,VALID,917.451,VALID,0,VALID,87.2575,VALID,-0.0849042,VALID,19.66,VALID,215,VALID,1.64323,
2001-01-17, 01:48:00,VALID,917.433,VALID,0,VALID,87.3262,VALID,-0.101885,VALID,19.6955,VALID,204,VALID,0.879774,
2001-01-17, 01:49:00,VALID,917.426,VALID,0,VALID,87.3974,VALID,-0.101885,VALID,19.7077,VALID,206,VALID,0.587891,
2001-01-17, 01:50:00,VALID,917.423,VALID,0,VALID,87.4025,VALID,-0.0849042,VALID,19.7213,VALID,209,VALID,0.83861,
2001-01-17, 01:51:00,VALID,917.417,VALID,0,VALID,87.5652,VALID,-0.0509425,VALID,19.7216,VALID,209,VALID,0.673394,
2001-01-17, 01:52:00,VALID,917.414,VALID,0,VALID,87.4457,VALID,-0.0849042,VALID,19.7084,VALID,224,VALID,0.98763,
2001-01-17, 01:53:00,VALID,917.414,VALID,0,VALID,87.2906,VALID,-0.0509425,VALID,19.7082,VALID,200,VALID,0.51727,
2001-01-17, 01:54:00,VALID,917.406,VALID,0,VALID,87.8234,VALID,-0.0339617,VALID,19.7179,VALID,189,VALID,0.53817,
2001-01-17, 01:55:00,VALID,917.414,VALID,0,VALID,87.8234,VALID,-0.0679233,VALID,19.6923,VALID,204,VALID,0.988176,
2001-01-17, 01:56:00,VALID,917.394,VALID,0,VALID,87.7496,VALID,-0.0849042,VALID,19.6918,VALID,202,VALID,0.930607,
2001-01-17, 01:57:00,VALID,917.387,VALID,0,VALID,87.5919,VALID,-0.0679233,VALID,19.6823,VALID,203,VALID,0.959037,
2001-01-17, 01:58:00,VALID,917.366,VALID,0,VALID,87.7305,VALID,-0.0679233,VALID,19.6791,VALID,201,VALID,0.621194,
2001-01-17, 01:59:00,VALID,917.351,VALID,0,VALID,87.5843,VALID,-0.0679233,VALID,19.6756,VALID,212,VALID,0.806027,
2001-01-17, 02:00:00,VALID,917.336,VALID,0,VALID,87.4724,VALID,-0.101885,VALID,19.6761,VALID,210,VALID,1.1104,
2001-01-17, 02:01:00,VALID,917.332,VALID,0,VALID,87.6606,VALID,-0.0849042,VALID,19.6662,VALID,198,VALID,0.73125,
2001-01-17, 02:02:00,VALID,917.301,VALID,0,VALID,87.4432,VALID,-0.101885,VALID,19.6826,VALID,226,VALID,0.999132,
2001-01-17, 02:03:00,VALID,917.284,VALID,0,VALID,87.2308,VALID,-0.101885,VALID,19.6925,VALID,223,VALID,1.11155,
2001-01-17, 02:04:00,VALID,917.258,VALID,0,VALID,86.6637,VALID,-0.0679233,VALID,19.6987,VALID,227,VALID,1.47374,
2001-01-17, 02:05:00,VALID,917.241,VALID,0,VALID,86.932,VALID,-0.0679233,VALID,19.7313,VALID,209,VALID,0.953947,
2001-01-17, 02:06:00,VALID,917.228,VALID,0,VALID,86.7082,VALID,-0.0849042,VALID,19.7375,VALID,223,VALID,1.50412,
2001-01-17, 02:07:00,VALID,917.215,VALID,0,VALID,86.6866,VALID,-0.101885,VALID,19.7437,VALID,231,VALID,1.00564,
2001-01-17, 02:08:00,VALID,917.188,VALID,0,VALID,87.0261,VALID,-0.0679233,VALID,19.7502,VALID,222,VALID,0.856291,
2001-01-17, 02:09:00,VALID,917.166,VALID,0,VALID,87.2321,VALID,-0.0849042,VALID,19.7407,VALID,223,VALID,0.823438,
2001-01-17, 02:10:00,VALID,917.143,VALID,0,VALID,87.138,VALID,-0.101885,VALID,19.7184,VALID,227,VALID,1.02703,
2001-01-17, 02:11:00,VALID,917.108,VALID,0,VALID,86.9409,VALID,-0.0849042,VALID,19.6885,VALID,231,VALID,1.09421,
2001-01-17, 02:12:00,VALID,917.078,VALID,0,VALID,86.5123,VALID,-0.0679233,VALID,19.7054,VALID,238,VALID,1.3372,
2001-01-17, 02:13:00,VALID,917.063,VALID,0,VALID,86.5899,VALID,-0.0509425,VALID,19.7343,VALID,198,VALID,1.07212,
2001-01-17, 02:14:00,VALID,917.056,VALID,0,VALID,87.0579,VALID,-0.0849042,VALID,19.7405,VALID,194,VALID,0.293304,
2001-01-17, 02:15:00,VALID,917.052,VALID,0,VALID,86.8849,VALID,-0.0849042,VALID,19.7246,VALID,231,VALID,0.493627,
2001-01-17, 02:16:00,VALID,917.047,VALID,0,VALID,87.1659,VALID,-0.0849042,VALID,19.7315,VALID,234,VALID,0.891295,
2001-01-17, 02:17:00,VALID,917.03,VALID,0,VALID,87.1799,VALID,-0.101885,VALID,19.7054,VALID,224,VALID,0.840712,
2001-01-17, 02:18:00,VALID,917.016,VALID,0,VALID,87.3821,VALID,-0.0849042,VALID,19.7022,VALID,224,VALID,0.474392,
2001-01-17, 02:19:00,VALID,917.006,VALID,0,VALID,87.0757,VALID,-0.0679233,VALID,19.6759,VALID,209,VALID,0.857422,
2001-01-17, 02:20:00,VALID,916.999,VALID,0,VALID,86.5098,VALID,-0.101885,VALID,19.6828,VALID,240,VALID,1.11883,
2001-01-17, 02:21:00,VALID,916.987,VALID,0,VALID,86.2771,VALID,-0.0339617,VALID,19.6913,VALID,233,VALID,0.943576,
2001-01-17, 02:22:00,VALID,916.978,VALID,0,VALID,86.2809,VALID,0,VALID,19.7405,VALID,223,VALID,1.25499,
2001-01-17, 02:23:00,VALID,916.965,VALID,0,VALID,86.4742,VALID,0.0169808,VALID,19.7236,VALID,238,VALID,1.15481,
2001-01-17, 02:24:00,VALID,916.958,VALID,0,VALID,86.5238,VALID,0,VALID,19.7131,VALID,221,VALID,1.31719,
2001-01-17, 02:25:00,VALID,916.943,VALID,0,VALID,86.6649,VALID,0.0509425,VALID,19.7102,VALID,239,VALID,1.02597,
2001-01-17, 02:26:00,VALID,916.937,VALID,0,VALID,86.6827,VALID,0.0339617,VALID,19.7007,VALID,237,VALID,0.904182,
2001-01-17, 02:27:00,VALID,916.922,VALID,0,VALID,86.6764,VALID,0.0169808,VALID,19.6875,VALID,225,VALID,0.716005,
2001-01-17, 02:28:00,VALID,916.918,VALID,0,VALID,86.4653,VALID,0.0169808,VALID,19.6843,VALID,200,VALID,0.684295,
2001-01-17, 02:29:00,VALID,916.921,VALID,0,VALID,86.7476,VALID,0.0509425,VALID,19.698,VALID,222,VALID,0.40625,
2001-01-17, 02:30:01,VALID,916.907,VALID,0,VALID,86.9371,VALID,0.0169808,VALID,19.6813,VALID,231,VALID,0.355674,
2001-01-17, 02:31:00,VALID,916.883,VALID,0,VALID,87.0299,VALID,0.0169808,VALID,19.6615,VALID,199,VALID,0.568973,
2001-01-17, 02:32:00,VALID,916.865,VALID,0,VALID,87.255,VALID,0.0169808,VALID,19.6523,VALID,198,VALID,0.31033,
2001-01-17, 02:33:00,VALID,916.856,VALID,0,VALID,87.2995,VALID,0.0339617,VALID,19.6259,VALID,199,VALID,0.222873,
2001-01-17, 02:34:00,VALID,916.835,VALID,0,VALID,87.5487,VALID,0.0169808,VALID,19.6167,VALID,198,VALID,0.400391,
2001-01-17, 02:35:00,VALID,916.814,VALID,0,VALID,87.7344,VALID,0.0509425,VALID,19.5842,VALID,212,VALID,0.146382,
2001-01-17, 02:36:00,VALID,916.792,VALID,0,VALID,87.7827,VALID,0.0339617,VALID,19.565,VALID,229,VALID,0.205946,
2001-01-17, 02:37:00,VALID,916.797,VALID,0,VALID,88.0688,VALID,0.0169808,VALID,19.5392,VALID,163,VALID,0.251786,
2001-01-17, 02:38:00,VALID,916.783,VALID,0,VALID,88.3663,VALID,0.0169808,VALID,19.5161,VALID,161,VALID,0.119449,
2001-01-17, 02:39:00,VALID,916.779,VALID,0,VALID,88.9691,VALID,0.0849042,VALID,19.4905,VALID,170,VALID,0.270312,
2001-01-17, 02:40:00,VALID,916.781,VALID,0,VALID,89.0403,VALID,0.0169808,VALID,19.4617,VALID,183,VALID,0.410895,
2001-01-17, 02:41:00,VALID,916.777,VALID,0,VALID,89.198,VALID,0.0339617,VALID,19.4291,VALID,202,VALID,0.428539,
2001-01-17, 02:42:00,VALID,916.769,VALID,0,VALID,89.2654,VALID,0.0509425,VALID,19.3936,VALID,217,VALID,0.399071,
2001-01-17, 02:43:00,VALID,916.755,VALID,0,VALID,89.1636,VALID,0.0339617,VALID,19.3643,VALID,203,VALID,0.923277,
2001-01-17, 02:44:00,VALID,916.742,VALID,0,VALID,89.4765,VALID,0.0339617,VALID,19.3449,VALID,216,VALID,0.710045,
2001-01-17, 02:45:00,VALID,916.713,VALID,0,VALID,89.7206,VALID,0.0169808,VALID,19.3357,VALID,219,VALID,0.363692,
2001-01-17, 02:46:00,VALID,916.711,VALID,0,VALID,89.7626,VALID,0.0169808,VALID,19.3295,VALID,224,VALID,0.264062,
2001-01-17, 02:47:00,VALID,916.699,VALID,0,VALID,89.6723,VALID,0.0509425,VALID,19.3136,VALID,241,VALID,0.434245,
2001-01-17, 02:48:00,VALID,916.687,VALID,0,VALID,89.7855,VALID,0.0339617,VALID,19.3073,VALID,223,VALID,0.433594,
2001-01-17, 02:49:00,VALID,916.688,VALID,0,VALID,89.8172,VALID,0,VALID,19.2711,VALID,209,VALID,0.686198,
2001-01-17, 02:50:00,VALID,916.676,VALID,0,VALID,89.9088,VALID,0,VALID,19.2549,VALID,211,VALID,0.506373,
2001-01-17, 02:51:01,VALID,916.667,VALID,0,VALID,90.1059,VALID,0.0169808,VALID,19.2452,VALID,211,VALID,0.0796441,
2001-01-17, 02:52:00,VALID,916.671,VALID,0,VALID,89.9775,VALID,0.0169808,VALID,19.2351,VALID,201,VALID,0.369141,
2001-01-17, 02:53:01,VALID,916.661,VALID,0,VALID,90.1568,VALID,0.0169808,VALID,19.2323,VALID,212,VALID,0.143914,
2001-01-17, 02:54:00,VALID,916.663,VALID,0,VALID,90.0232,VALID,0,VALID,19.2231,VALID,192,VALID,0.498661,
2001-01-17, 02:55:01,VALID,916.656,VALID,0,VALID,89.9406,VALID,0.0169808,VALID,19.2134,VALID,204,VALID,0.542019,
2001-01-17, 02:56:00,VALID,916.631,VALID,0,VALID,89.9953,VALID,0.0339617,VALID,19.2035,VALID,223,VALID,0.604779,
2001-01-17, 02:57:00,VALID,916.638,VALID,0,VALID,90.0728,VALID,0.0339617,VALID,19.2008,VALID,230,VALID,0.26837,
2001-01-17, 02:58:00,VALID,916.63,VALID,0,VALID,90.1568,VALID,0.0339617,VALID,19.1941,VALID,210,VALID,0.298077,
2001-01-17, 02:59:00,VALID,916.624,VALID,0,VALID,90.2102,VALID,0.0679233,VALID,19.1876,VALID,201,VALID,0.557366,
2001-01-17, 03:00:01,VALID,916.623,VALID,0,VALID,90.1669,VALID,0.0169808,VALID,19.1717,VALID,200,VALID,0.492188,
2001-01-17, 03:01:00,VALID,916.602,VALID,0,VALID,90.1135,VALID,0.0339617,VALID,19.1588,VALID,211,VALID,0.621652,
2001-01-17, 03:02:00,VALID,916.598,VALID,0,VALID,90.0639,VALID,0.0169808,VALID,19.1523,VALID,212,VALID,0.618924,
2001-01-17, 03:03:00,VALID,916.583,VALID,0,VALID,90.125,VALID,0,VALID,19.1525,VALID,205,VALID,0.399089,
2001-01-17, 03:04:00,VALID,916.562,VALID,0,VALID,90.247,VALID,0,VALID,19.1493,VALID,212,VALID,0.284505,
2001-01-17, 03:05:00,VALID,916.557,VALID,0,VALID,89.8935,VALID,0,VALID,19.1327,VALID,206,VALID,0.574424,
2001-01-17, 03:06:01,VALID,916.55,VALID,0,VALID,89.9304,VALID,0,VALID,19.1227,VALID,227,VALID,0.538194,
2001-01-17, 03:07:00,VALID,916.533,VALID,0,VALID,89.8287,VALID,0,VALID,19.1068,VALID,227,VALID,0.495877,
2001-01-17, 03:08:01,VALID,916.545,VALID,0,VALID,89.7944,VALID,0,VALID,19.0937,VALID,221,VALID,0.606291,
2001-01-17, 03:09:00,VALID,916.552,VALID,0,VALID,89.5032,VALID,0.0169808,VALID,19.0875,VALID,225,VALID,0.925,
2001-01-17, 03:10:01,VALID,916.546,VALID,0,VALID,89.2145,VALID,0,VALID,19.1103,VALID,217,VALID,1.18687,
2001-01-17, 03:11:00,VALID,916.538,VALID,0,VALID,89.0835,VALID,0.0169808,VALID,19.1394,VALID,225,VALID,0.962086,
2001-01-17, 03:12:00,VALID,916.544,VALID,0,VALID,88.8216,VALID,0,VALID,19.1424,VALID,222,VALID,0.814823,
2001-01-17, 03:13:00,VALID,916.533,VALID,0,VALID,88.6957,VALID,0.0339617,VALID,19.1786,VALID,215,VALID,0.922877,
2001-01-17, 03:14:01,VALID,916.529,VALID,0,VALID,88.8902,VALID,0.0169808,VALID,19.1878,VALID,229,VALID,1.19107,
2001-01-17, 03:15:01,VALID,916.515,VALID,0,VALID,88.9843,VALID,0,VALID,19.1749,VALID,234,VALID,0.871711,
2001-01-17, 03:16:00,VALID,916.523,VALID,0,VALID,88.9843,VALID,0.0169808,VALID,19.1692,VALID,228,VALID,1.12254,
2001-01-17, 03:17:00,VALID,916.531,VALID,0,VALID,88.9055,VALID,0,VALID,19.1722,VALID,228,VALID,1.1773,
2001-01-17, 03:18:00,VALID,916.549,VALID,0,VALID,89.0238,VALID,0,VALID,19.1523,VALID,227,VALID,0.866102,
2001-01-17, 03:19:00,VALID,916.567,VALID,0,VALID,88.9665,VALID,0,VALID,19.1324,VALID,220,VALID,1.1849,
2001-01-17, 03:20:01,VALID,916.572,VALID,0,VALID,88.8902,VALID,0.0169808,VALID,19.1429,VALID,220,VALID,1.46649,
2001-01-17, 03:21:01,VALID,916.553,VALID,0,VALID,88.7377,VALID,-0.0679233,VALID,19.1403,VALID,219,VALID,1.38997,
2001-01-17, 03:22:00,VALID,916.555,VALID,0,VALID,88.4109,VALID,-0.0679233,VALID,19.1701,VALID,223,VALID,1.33832,
2001-01-17, 03:23:01,VALID,916.568,VALID,0,VALID,88.1044,VALID,-0.101885,VALID,19.2184,VALID,221,VALID,1.081,
2001-01-17, 03:24:00,VALID,916.567,VALID,0,VALID,87.9137,VALID,-0.101885,VALID,19.2544,VALID,209,VALID,1.20893,
2001-01-17, 03:25:01,VALID,916.551,VALID,0,VALID,88.1171,VALID,-0.101885,VALID,19.2703,VALID,202,VALID,0.633657,
2001-01-17, 03:26:00,VALID,916.561,VALID,0,VALID,87.9823,VALID,-0.101885,VALID,19.2606,VALID,192,VALID,0.99954,
2001-01-17, 03:27:00,VALID,916.55,VALID,0,VALID,88.0535,VALID,-0.0679233,VALID,19.241,VALID,194,VALID,0.779772,
2001-01-17, 03:28:00,VALID,916.545,VALID,0,VALID,88.2761,VALID,-0.101885,VALID,19.199,VALID,185,VALID,0.538061,
2001-01-17, 03:29:01,VALID,916.552,VALID,0,VALID,88.5901,VALID,-0.101885,VALID,19.1642,VALID,185,VALID,0.836161,
2001-01-17, 03:30:01,VALID,916.534,VALID,0,VALID,88.7936,VALID,-0.101885,VALID,19.1152,VALID,182,VALID,1.19737,